Location: *
(37.9500°N, 27.3666°E)
Time: 04:23:55
(UTC+00:00)

Okean O Rocket - Pass Details

Date: 24 October 2021
Orbit: 623 x 643 km, 98.2° (Epoch: 03 December)

Event Time Altitude Azimuth Distance (km) Brightness Sun altitude
Rises 17:31:58 0° 205° (SSW) 2,889 5.2 -26.5°
Reaches altitude 10° 17:34:49 10° 225° (SW) 1,989 4.6 -27.0°
Maximum altitude 17:37:38 17° 266° (W) 1,589 4.4 -27.6°
Drops below altitude 10° 17:40:28 10° 307° (NW) 2,003 4.9 -28.1°
Sets 17:43:23 0° 328° (NNW) 2,919 5.5 -28.7°
